Simultaneous Nadir Overpasses (SNOs) Predictions

Prediction of SNOs between METOP-A and TERRA Satellite Orbit:

Table of predicted SNOs for the next 14.0 days since TLE Epoch: 9/21/2013
Index Date (METOP-A) Time (METOP-A) Lat,Lon (METOP-A) SZA (METOP-A ) Date (TERRA) Time (TERRA) Lat,Lon (TERRA) SZA (TERRA ) Distance(km) Time Diff (sec)
1 09/22/2013 01:37:25 -81.31, 22.74 96.05 09/22/2013 01:38:04 -81.31, 22.64 96.04 1.63 39
2 09/22/2013 02:28:05 81.31,-169.43 84.03 09/22/2013 02:27:30 81.31,-169.59 84.00 2.78 35
3 09/24/2013 21:11:49 -81.30, 89.04 94.94 09/24/2013 21:12:18 -81.30, 88.87 94.96 3.11 29
4 09/24/2013 22:02:30 81.31,-103.54 85.09 09/24/2013 22:01:44 81.30,-103.40 85.08 2.41 46
5 09/27/2013 16:46:13 -81.30, 155.32 93.84 09/27/2013 16:46:31 -81.30, 155.36 93.83 0.78 18
6 09/
